Time,TemperatureF,DewpointF,PressureIn,WindDirection,WindDirectionDegrees,WindSpeedMPH,WindSpeedGustMPH,Humidity,HourlyPrecipIn,Conditions,Clouds,dailyrainin,SoftwareType,DateUTC
2013-07-27 00:09:00,59.9,52.0,29.98,SE,135,2.0,-999.0,75,-99.99,,,0.00,weatherlink.com 1.10,2013-07-27 07:09:00,
2013-07-27 00:24:00,59.5,52.0,29.98,SE,135,0.0,-999.0,76,-99.99,,,0.00,weatherlink.com 1.10,2013-07-27 07:24:00,
2013-07-27 00:39:00,59.0,51.0,29.98,SE,135,0.0,-999.0,76,-99.99,,,0.00,weatherlink.com 1.10,2013-07-27 07:39:00,
2013-07-27 00:54:00,58.7,52.0,29.98,SE,135,0.0,-999.0,77,-99.99,,,0.00,weatherlink.com 1.10,2013-07-27 07:54:00,
2013-07-27 01:10:00,58.1,51.0,29.98,SE,135,0.0,-999.0,78,-99.99,,,0.00,weatherlink.com 1.10,2013-07-27 08:10:00,
2013-07-27 01:25:00,57.5,51.0,29.97,SE,135,0.0,-999.0,79,-99.99,,,0.00,weatherlink.com 1.10,2013-07-27 08:25:00,
2013-07-27 01:40:00,57.0,51.0,29.98,SE,135,0.0,-999.0,80,-99.99,,,0.00,weatherlink.com 1.10,2013-07-27 08:40:00,
2013-07-27 01:55:00,56.7,51.0,29.98,SE,135,0.0,-999.0,81,-99.99,,,0.00,weatherlink.com 1.10,2013-07-27 08:55:00,
2013-07-27 02:10:00,56.5,51.0,29.97,SE,135,0.0,-999.0,81,-99.99,,,0.00,weatherlink.com 1.10,2013-07-27 09:10:00,
2013-07-27 02:25:00,56.0,51.0,29.97,SE,135,0.0,-999.0,82,-99.99,,,0.00,weatherlink.com 1.10,2013-07-27 09:25:00,
2013-07-27 02:40:00,55.7,51.0,29.97,SE,135,0.0,-999.0,83,-99.99,,,0.00,weatherlink.com 1.10,2013-07-27 09:40:00,
2013-07-27 02:55:00,55.4,50.0,29.96,SE,135,0.0,-999.0,83,-99.99,,,0.00,weatherlink.com 1.10,2013-07-27 09:55:00,
2013-07-27 03:10:00,55.0,50.0,29.96,SE,135,0.0,-999.0,83,-99.99,,,0.00,weatherlink.com 1.10,2013-07-27 10:10:00,
2013-07-27 03:25:00,54.7,50.0,29.95,SE,135,0.0,-999.0,83,-99.99,,,0.00,weatherlink.com 1.10,2013-07-27 10:25:00,
2013-07-27 03:40:00,54.4,50.0,29.95,SE,135,0.0,-999.0,84,-99.99,,,0.00,weatherlink.com 1.10,2013-07-27 10:40:00,
2013-07-27 03:55:00,54.1,49.0,29.95,SE,135,0.0,-999.0,84,-99.99,,,0.00,weatherlink.com 1.10,2013-07-27 10:55:00,
2013-07-27 04:09:00,53.9,49.0,29.95,SE,135,0.0,-999.0,84,-99.99,,,0.00,weatherlink.com 1.10,2013-07-27 11:09:00,
2013-07-27 04:24:00,53.5,49.0,29.95,SE,135,0.0,-999.0,84,-99.99,,,0.00,weatherlink.com 1.10,2013-07-27 11:24:00,
2013-07-27 04:40:00,53.1,49.0,29.95,SE,135,0.0,-999.0,85,-99.99,,,0.00,weatherlink.com 1.10,2013-07-27 11:40:00,
2013-07-27 04:55:00,52.8,48.0,29.95,SE,135,0.0,-999.0,85,-99.99,,,0.00,weatherlink.com 1.10,2013-07-27 11:55:00,
2013-07-27 05:10:00,52.5,49.0,29.95,SE,135,0.0,-999.0,86,-99.99,,,0.00,weatherlink.com 1.10,2013-07-27 12:10:00,
2013-07-27 05:25:00,52.0,48.0,29.95,SE,135,0.0,-999.0,86,-99.99,,,0.00,weatherlink.com 1.10,2013-07-27 12:25:00,
2013-07-27 05:40:00,51.9,48.0,29.96,SE,135,0.0,-999.0,87,-99.99,,,0.00,weatherlink.com 1.10,2013-07-27 12:40:00,
2013-07-27 05:55:00,51.9,48.0,29.96,SE,135,0.0,-999.0,87,-99.99,,,0.00,weatherlink.com 1.10,2013-07-27 12:55:00,
2013-07-27 06:10:00,52.0,49.0,29.96,SE,135,0.0,-999.0,88,-99.99,,,0.00,weatherlink.com 1.10,2013-07-27 13:10:00,
2013-07-27 06:25:00,52.2,49.0,29.96,SE,135,0.0,-999.0,88,-99.99,,,0.00,weatherlink.com 1.10,2013-07-27 13:25:00,
2013-07-27 06:40:00,52.6,50.0,29.96,SE,135,0.0,-999.0,89,-99.99,,,0.00,weatherlink.com 1.10,2013-07-27 13:40:00,
2013-07-27 06:55:00,53.2,50.0,29.96,SE,135,0.0,-999.0,90,-99.99,,,0.00,weatherlink.com 1.10,2013-07-27 13:55:00,
2013-07-27 07:10:00,53.5,50.0,29.96,SE,135,0.0,-999.0,89,-99.99,,,0.00,weatherlink.com 1.10,2013-07-27 14:10:00,
2013-07-27 07:25:00,54.1,51.0,29.96,SE,135,0.0,-999.0,89,-99.99,,,0.00,weatherlink.com 1.10,2013-07-27 14:25:00,
2013-07-27 07:40:00,54.4,51.0,29.97,SE,135,0.0,-999.0,88,-99.99,,,0.00,weatherlink.com 1.10,2013-07-27 14:40:00,
2013-07-27 07:55:00,54.7,51.0,29.97,SE,135,0.0,-999.0,88,-99.99,,,0.00,weatherlink.com 1.10,2013-07-27 14:55:00,
2013-07-27 08:10:00,55.0,51.0,29.97,SE,135,0.0,-999.0,87,-99.99,,,0.00,weatherlink.com 1.10,2013-07-27 15:10:00,
2013-07-27 08:25:00,55.3,52.0,29.97,SE,135,0.0,-999.0,87,-99.99,,,0.00,weatherlink.com 1.10,2013-07-27 15:25:00,
2013-07-27 08:40:00,55.7,51.0,29.98,SE,135,0.0,-999.0,85,-99.99,,,0.00,weatherlink.com 1.10,2013-07-27 15:40:00,
2013-07-27 08:55:00,56.2,52.0,29.98,SE,135,0.0,-999.0,84,-99.99,,,0.00,weatherlink.com 1.10,2013-07-27 15:55:00,
2013-07-27 09:10:00,56.9,52.0,29.97,SE,135,0.0,-999.0,82,-99.99,,,0.00,weatherlink.com 1.10,2013-07-27 16:10:00,
2013-07-27 09:25:00,58.3,52.0,29.97,SE,135,0.0,-999.0,80,-99.99,,,0.00,weatherlink.com 1.10,2013-07-27 16:25:00,
2013-07-27 09:40:00,60.4,53.0,29.97,SE,135,3.0,-999.0,76,-99.99,,,0.00,weatherlink.com 1.10,2013-07-27 16:40:00,
2013-07-27 09:55:00,62.1,53.0,29.96,South,190,4.0,-999.0,72,-99.99,,,0.00,weatherlink.com 1.10,2013-07-27 16:55:00,
2013-07-27 10:10:00,63.7,53.0,29.96,SSE,161,0.0,-999.0,68,-99.99,,,0.00,weatherlink.com 1.10,2013-07-27 17:10:00,
2013-07-27 10:25:00,65.2,53.0,29.96,SSE,161,0.0,-999.0,66,-99.99,,,0.00,weatherlink.com 1.10,2013-07-27 17:25:00,
2013-07-27 10:40:00,66.6,54.0,29.95,SE,144,3.0,-999.0,64,-99.99,,,0.00,weatherlink.com 1.10,2013-07-27 17:40:00,
2013-07-27 10:55:00,67.4,54.0,29.95,ESE,117,0.0,-999.0,63,-99.99,,,0.00,weatherlink.com 1.10,2013-07-27 17:55:00,
2013-07-27 11:10:00,69.1,55.0,29.94,SSE,168,2.0,-999.0,62,-99.99,,,0.00,weatherlink.com 1.10,2013-07-27 18:10:00,
2013-07-27 11:25:00,70.6,55.0,29.94,East,89,1.0,-999.0,58,-99.99,,,0.00,weatherlink.com 1.10,2013-07-27 18:25:00,
2013-07-27 11:41:00,71.8,55.0,29.93,West,274,3.0,-999.0,55,-99.99,,,0.00,weatherlink.com 1.10,2013-07-27 18:41:00,
2013-07-27 11:56:00,73.2,56.0,29.93,SE,132,3.0,-999.0,55,-99.99,,,0.00,weatherlink.com 1.10,2013-07-27 18:56:00,
2013-07-27 12:11:00,74.6,56.0,29.92,SE,134,4.0,-999.0,53,-99.99,,,0.00,weatherlink.com 1.10,2013-07-27 19:11:00,
2013-07-27 12:26:00,75.8,56.0,29.92,SE,134,3.0,-999.0,51,-99.99,,,0.00,weatherlink.com 1.10,2013-07-27 19:26:00,
2013-07-27 12:41:00,76.3,57.0,29.91,SE,144,0.0,-999.0,51,-99.99,,,0.00,weatherlink.com 1.10,2013-07-27 19:41:00,
2013-07-27 12:56:00,77.7,56.0,29.91,SE,141,3.0,-999.0,48,-99.99,,,0.00,weatherlink.com 1.10,2013-07-27 19:56:00,
2013-07-27 13:12:00,79.0,57.0,29.90,SE,130,4.0,-999.0,47,-99.99,,,0.00,weatherlink.com 1.10,2013-07-27 20:12:00,
2013-07-27 13:27:00,80.3,58.0,29.89,SE,133,1.0,-999.0,46,-99.99,,,0.00,weatherlink.com 1.10,2013-07-27 20:27:00,
2013-07-27 13:42:00,80.7,57.0,29.89,SE,128,0.0,-999.0,44,-99.99,,,0.00,weatherlink.com 1.10,2013-07-27 20:42:00,
2013-07-27 13:57:00,81.4,57.0,29.88,South,171,5.0,-999.0,43,-99.99,,,0.00,weatherlink.com 1.10,2013-07-27 20:57:00,
2013-07-27 14:11:00,83.0,58.0,29.88,SE,132,0.0,-999.0,42,-99.99,,,0.00,weatherlink.com 1.10,2013-07-27 21:11:00,
2013-07-27 14:26:00,83.2,58.0,29.87,SSE,165,2.0,-999.0,42,-99.99,,,0.00,weatherlink.com 1.10,2013-07-27 21:26:00,
2013-07-27 14:41:00,84.0,59.0,29.86,SSE,151,4.0,-999.0,43,-99.99,,,0.00,weatherlink.com 1.10,2013-07-27 21:41:00,
2013-07-27 14:56:00,84.7,58.0,29.86,SSE,153,1.0,-999.0,40,-99.99,,,0.00,weatherlink.com 1.10,2013-07-27 21:56:00,
2013-07-27 15:26:00,85.1,58.0,29.84,SE,126,0.0,-999.0,40,-99.99,,,0.00,weatherlink.com 1.10,2013-07-27 22:26:00,
2013-07-27 15:42:00,85.3,58.0,29.84,ESE,109,0.0,-999.0,40,-99.99,,,0.00,weatherlink.com 1.10,2013-07-27 22:42:00,
2013-07-27 15:57:00,85.9,59.0,29.83,SE,125,0.0,-999.0,40,-99.99,,,0.00,weatherlink.com 1.10,2013-07-27 22:57:00,
2013-07-27 16:12:00,86.1,60.0,29.83,SSE,161,4.0,-999.0,41,-99.99,,,0.00,weatherlink.com 1.10,2013-07-27 23:12:00,
2013-07-27 16:27:00,86.3,59.0,29.82,South,169,3.0,-999.0,39,-99.99,,,0.00,weatherlink.com 1.10,2013-07-27 23:27:00,
2013-07-27 16:42:00,86.1,60.0,29.81,ESE,118,5.0,-999.0,42,-99.99,,,0.00,weatherlink.com 1.10,2013-07-27 23:42:00,
2013-07-27 16:57:00,85.7,59.0,29.81,ESE,112,4.0,-999.0,40,-99.99,,,0.00,weatherlink.com 1.10,2013-07-27 23:57:00,
2013-07-27 17:12:00,85.9,60.0,29.80,South,173,7.0,-999.0,41,-99.99,,,0.00,weatherlink.com 1.10,2013-07-28 00:12:00,
2013-07-27 17:27:00,85.1,59.0,29.80,South,173,7.0,-999.0,42,-99.99,,,0.00,weatherlink.com 1.10,2013-07-28 00:27:00,
2013-07-27 17:42:00,84.3,60.0,29.80,SE,125,6.0,-999.0,44,-99.99,,,0.00,weatherlink.com 1.10,2013-07-28 00:42:00,
2013-07-27 17:57:00,83.0,60.0,29.80,ESE,114,3.0,-999.0,46,-99.99,,,0.00,weatherlink.com 1.10,2013-07-28 00:57:00,
2013-07-27 18:12:00,82.4,60.0,29.80,South,184,0.0,-999.0,46,-99.99,,,0.00,weatherlink.com 1.10,2013-07-28 01:12:00,
2013-07-27 18:27:00,80.9,59.0,29.80,SSE,161,2.0,-999.0,48,-99.99,,,0.00,weatherlink.com 1.10,2013-07-28 01:27:00,
2013-07-27 18:42:00,79.2,59.0,29.80,East,79,4.0,-999.0,50,-99.99,,,0.00,weatherlink.com 1.10,2013-07-28 01:42:00,
2013-07-27 18:57:00,77.2,59.0,29.80,SSE,160,3.0,-999.0,53,-99.99,,,0.00,weatherlink.com 1.10,2013-07-28 01:57:00,
2013-07-27 19:11:00,76.0,59.0,29.80,ESE,121,1.0,-999.0,55,-99.99,,,0.00,weatherlink.com 1.10,2013-07-28 02:11:00,
2013-07-27 19:41:00,74.2,58.0,29.80,SSE,151,0.0,-999.0,57,-99.99,,,0.00,weatherlink.com 1.10,2013-07-28 02:41:00,
2013-07-27 19:56:00,73.0,58.0,29.80,SE,130,0.0,-999.0,59,-99.99,,,0.00,weatherlink.com 1.10,2013-07-28 02:56:00,
2013-07-27 20:12:00,71.6,57.0,29.81,SSE,161,0.0,-999.0,61,-99.99,,,0.00,weatherlink.com 1.10,2013-07-28 03:12:00,
2013-07-27 20:27:00,70.3,57.0,29.81,SE,141,2.0,-999.0,63,-99.99,,,0.00,weatherlink.com 1.10,2013-07-28 03:27:00,
2013-07-27 20:42:00,68.9,57.0,29.81,SE,141,2.0,-999.0,66,-99.99,,,0.00,weatherlink.com 1.10,2013-07-28 03:42:00,
2013-07-27 20:57:00,67.6,57.0,29.82,East,100,0.0,-999.0,68,-99.99,,,0.00,weatherlink.com 1.10,2013-07-28 03:57:00,
2013-07-27 21:12:00,66.6,57.0,29.82,ESE,113,0.0,-999.0,70,-99.99,,,0.00,weatherlink.com 1.10,2013-07-28 04:12:00,
2013-07-27 21:27:00,66.0,56.0,29.83,ESE,115,0.0,-999.0,71,-99.99,,,0.00,weatherlink.com 1.10,2013-07-28 04:27:00,
2013-07-27 21:42:00,65.2,56.0,29.83,ESE,115,0.0,-999.0,72,-99.99,,,0.00,weatherlink.com 1.10,2013-07-28 04:42:00,
2013-07-27 21:57:00,64.7,56.0,29.83,ESE,115,0.0,-999.0,73,-99.99,,,0.00,weatherlink.com 1.10,2013-07-28 04:57:00,
2013-07-27 22:12:00,64.0,56.0,29.83,ESE,115,0.0,-999.0,74,-99.99,,,0.00,weatherlink.com 1.10,2013-07-28 05:12:00,
2013-07-27 22:28:00,63.5,55.0,29.83,ESE,115,0.0,-999.0,74,-99.99,,,0.00,weatherlink.com 1.10,2013-07-28 05:28:00,
2013-07-27 22:43:00,62.7,55.0,29.84,ESE,115,0.0,-999.0,75,-99.99,,,0.00,weatherlink.com 1.10,2013-07-28 05:43:00,
2013-07-27 22:58:00,62.3,55.0,29.84,ESE,115,0.0,-999.0,76,-99.99,,,0.00,weatherlink.com 1.10,2013-07-28 05:58:00,
2013-07-27 23:13:00,61.8,55.0,29.84,ESE,115,0.0,-999.0,77,-99.99,,,0.00,weatherlink.com 1.10,2013-07-28 06:13:00,
2013-07-27 23:28:00,61.2,54.0,29.84,ESE,115,0.0,-999.0,77,-99.99,,,0.00,weatherlink.com 1.10,2013-07-28 06:28:00,
2013-07-27 23:43:00,60.7,53.0,29.84,ESE,115,0.0,-999.0,77,-99.99,,,0.00,weatherlink.com 1.10,2013-07-28 06:43:00,
2013-07-27 23:58:00,60.4,53.0,29.84,ESE,115,0.0,-999.0,76,-99.99,,,0.00,weatherlink.com 1.10,2013-07-28 06:58:00,